| time (UTC) | temp C | wind direction | speed KPH | gust KPH | rain 1hr cm | rain 24hr cm | rain mn cm | humidity % | barometer mb |
| 20260508174123 | 22 | 53 | 4.8 | 9.7 | 0.00 | 0.00 | 0.00 | 68 | 1016.2 |
| 20260508173612 | 22 | 33 | 6.4 | 9.7 | 0.00 | 0.00 | 0.00 | 67 | 1016.1 |
| 20260508173108 | 22 | 60 | 4.8 | 11.3 | 0.00 | 0.00 | 0.00 | 68 | 1016.1 |
| 20260508172610 | 22 | 71 | 4.8 | 11.3 | 0.00 | 0.00 | 0.00 | 69 | 1016.2 |
| 20260508171607 | 22 | 58 | 4.8 | 8.0 | 0.00 | 0.00 | 0.00 | 69 | 1016.3 |
| 20260508171115 | 22 | 58 | 4.8 | 9.7 | 0.00 | 0.00 | 0.00 | 71 | 1016.4 |
| 20260508170608 | 22 | 51 | 3.2 | 9.7 | 0.00 | 0.00 | 0.00 | 68 | 1016.6 |
| 20260508165607 | 22 | 121 | 3.2 | 8.0 | 0.00 | 0.00 | 0.00 | 71 | 1016.8 |
| 20260508165106 | 22 | 65 | 3.2 | 9.7 | 0.00 | 0.00 | 0.00 | 70 | 1016.8 |
| 20260508164606 | 22 | 60 | 4.8 | 12.9 | 0.00 | 0.00 | 0.00 | 67 | 1016.8 |
| 20260508164102 | 22 | 71 | 4.8 | 12.9 | 0.00 | 0.00 | 0.00 | 69 | 1016.8 |
| 20260508163606 | 22 | 23 | 3.2 | 9.7 | 0.00 | 0.00 | 0.00 | 72 | 1016.8 |
| 20260508163105 | 22 | 34 | 4.8 | 11.3 | 0.00 | 0.00 | 0.00 | 71 | 1016.7 |
| 20260508162610 | 22 | 68 | 4.8 | 12.9 | 0.00 | 0.00 | 0.00 | 71 | 1016.9 |
| 20260508162104 | 22 | 87 | 4.8 | 12.9 | 0.00 | 0.00 | 0.00 | 72 | 1016.8 |
| 20260508161608 | 22 | 67 | 4.8 | 14.5 | 0.00 | 0.00 | 0.00 | 74 | 1016.8 |
| 20260508161105 | 21 | 47 | 8.0 | 14.5 | 0.00 | 0.00 | 0.00 | 75 | 1016.9 |
| 20260508160104 | 21 | 57 | 6.4 | 14.5 | 0.00 | 0.00 | 0.00 | 75 | 1017.1 |
| 20260508155607 | 21 | 63 | 6.4 | 16.1 | 0.00 | 0.00 | 0.00 | 76 | 1017.1 |
| 20260508154607 | 21 | 323 | 6.4 | 14.5 | 0.00 | 0.00 | 0.00 | 77 | 1017.2 |
| 20260508154103 | 20 | 54 | 6.4 | 14.5 | 0.00 | 0.00 | 0.00 | 76 | 1017.2 |
| 20260508153606 | 20 | 30 | 4.8 | 11.3 | 0.00 | 0.00 | 0.00 | 75 | 1017.2 |
| 20260508153102 | 20 | 68 | 3.2 | 11.3 | 0.00 | 0.00 | 0.00 | 75 | 1017.2 |
| 20260508152606 | 20 | 70 | 4.8 | 11.3 | 0.00 | 0.00 | 0.00 | 75 | 1017.3 |
| 20260508152104 | 20 | 70 | 6.4 | 12.9 | 0.00 | 0.00 | 0.00 | 75 | 1017.2 |
| 20260508151607 | 20 | 65 | 4.8 | 12.9 | 0.00 | 0.03 | 0.00 | 75 | 1017.3 |
| 20260508151106 | 20 | 19 | 6.4 | 12.9 | 0.00 | 0.03 | 0.00 | 74 | 1017.3 |
| 20260508150608 | 20 | 17 | 4.8 | 16.1 | 0.00 | 0.03 | 0.00 | 73 | 1017.2 |
| 20260508145605 | 20 | 51 | 4.8 | 9.7 | 0.00 | 0.05 | 0.00 | 74 | 1017.3 |
| 20260508145102 | 20 | 61 | 6.4 | 12.9 | 0.00 | 0.05 | 0.00 | 74 | 1017.2 |
| 20260508144605 | 20 | 50 | 6.4 | 12.9 | 0.00 | 0.08 | 0.00 | 74 | 1017.1 |
| 20260508144104 | 20 | 74 | 4.8 | 11.3 | 0.00 | 0.10 | 0.00 | 74 | 1017.2 |
| 20260508143605 | 20 | 28 | 4.8 | 9.7 | 0.00 | 0.13 | 0.00 | 74 | 1017.4 |
| 20260508143103 | 20 | 13 | 3.2 | 8.0 | 0.00 | 0.15 | 0.00 | 73 | 1017.4 |
| 20260508142606 | 20 | 67 | 3.2 | 9.7 | 0.00 | 0.23 | 0.00 | 74 | 1017.4 |
| 20260508142105 | 20 | 68 | 4.8 | 11.3 | 0.00 | 0.28 | 0.00 | 74 | 1017.3 |
| 20260508141555 | 20 | 15 | 6.4 | 14.5 | 0.00 | 0.33 | 0.00 | 74 | 1017.5 |
| 20260508141052 | 20 | 50 | 6.4 | 14.5 | 0.00 | 0.38 | 0.00 | 74 | 1017.5 |
| 20260508140042 | 19 | 24 | 6.4 | 12.9 | 0.00 | 0.43 | 0.00 | 75 | 1017.1 |
| 20260508135542 | 19 | 27 | 4.8 | 12.9 | 0.00 | 0.43 | 0.00 | 75 | 1017.1 |
| 20260508134541 | 19 | 351 | 4.8 | 8.0 | 0.00 | 0.43 | 0.00 | 75 | 1017.3 |
| 20260508134043 | 19 | 2 | 4.8 | 11.3 | 0.00 | 0.43 | 0.00 | 76 | 1017.3 |
| 20260508133537 | 18 | 10 | 3.2 | 12.9 | 0.00 | 0.46 | 0.00 | 76 | 1017.1 |
| 20260508133035 | 18 | 346 | 3.2 | 12.9 | 0.00 | 0.46 | 0.00 | 76 | 1017.0 |
| 20260508132537 | 18 | 45 | 4.8 | 16.1 | 0.00 | 0.46 | 0.00 | 76 | 1017.0 |
| 20260508132036 | 18 | 51 | 6.4 | 16.1 | 0.00 | 0.46 | 0.00 | 75 | 1016.8 |
| 20260508131536 | 18 | 356 | 6.4 | 11.3 | 0.00 | 0.46 | 0.00 | 76 | 1016.8 |
| 20260508131035 | 18 | 0 | 4.8 | 11.3 | 0.00 | 0.48 | 0.00 | 75 | 1016.9 |
| 20260508130037 | 18 | 17 | 4.8 | 9.7 | 0.00 | 0.53 | 0.00 | 75 | 1016.8 |
| 20260508125534 | 18 | 33 | 3.2 | 9.7 | 0.00 | 0.56 | 0.00 | 75 | 1016.8 |
| 20260508123528 | 18 | 20 | 8.0 | 17.7 | 0.00 | 0.69 | 0.00 | 77 | 1016.4 |
| 20260508123029 | 18 | 331 | 6.4 | 17.7 | 0.00 | 0.74 | 0.00 | 77 | 1016.6 |
| 20260508122535 | 18 | 351 | 4.8 | 12.9 | 0.00 | 0.76 | 0.00 | 77 | 1016.7 |
| 20260508121024 | 18 | 3 | 3.2 | 6.4 | 0.00 | 0.84 | 0.00 | 78 | 1016.0 |
| 20260508120526 | 18 | 3 | 3.2 | 8.0 | 0.00 | 0.84 | 0.00 | 78 | 1016.0 |
| 20260508120025 | 18 | 356 | 3.2 | 9.7 | 0.00 | 0.84 | 0.00 | 77 | 1016.1 |
| 20260508115523 | 18 | 351 | 3.2 | 9.7 | 0.00 | 0.84 | 0.00 | 78 | 1016.2 |
| 20260508115022 | 18 | 356 | 3.2 | 8.0 | 0.00 | 0.84 | 0.00 | 78 | 1016.1 |
| 20260508114033 | 18 | 356 | 3.2 | 6.4 | 0.00 | 0.84 | 0.00 | 78 | 1015.9 |
| 20260508113536 | 18 | 5 | 3.2 | 6.4 | 0.00 | 0.84 | 0.00 | 78 | 1015.9 |
| 20260508113028 | 18 | 5 | 1.6 | 6.4 | 0.00 | 0.84 | 0.00 | 78 | 1015.9 |
| 20260508112519 | 18 | 20 | 1.6 | 4.8 | 0.00 | 0.84 | 0.00 | 77 | 1015.9 |
| 20260508112021 | 18 | 20 | 3.2 | 4.8 | 0.00 | 0.84 | 0.00 | 77 | 1015.7 |
| 20260508111017 | 18 | 20 | 1.6 | 6.4 | 0.00 | 0.84 | 0.00 | 76 | 1015.4 |
| 20260508110515 | 18 | 20 | 1.6 | 6.4 | 0.00 | 0.84 | 0.00 | 76 | 1015.2 |
| 20260508110016 | 18 | 20 | 3.2 | 6.4 | 0.00 | 0.84 | 0.00 | 77 | 1015.3 |
| 20260508105517 | 18 | 20 | 3.2 | 4.8 | 0.00 | 0.84 | 0.00 | 78 | 1015.3 |
| 20260508105014 | 18 | 20 | 3.2 | 9.7 | 0.00 | 0.84 | 0.00 | 78 | 1015.2 |
| 20260508104513 | 18 | 21 | 1.6 | 9.7 | 0.00 | 0.84 | 0.00 | 78 | 1015.0 |
| 20260508104022 | 18 | 40 | 1.6 | 3.2 | 0.00 | 0.84 | 0.00 | 79 | 1014.9 |
| 20260508103519 | 18 | 40 | 1.6 | 4.8 | 0.00 | 0.84 | 0.00 | 78 | 1015.0 |
| 20260508102504 | 18 | 40 | 1.6 | 6.4 | 0.00 | 0.84 | 0.00 | 80 | 1014.7 |
| 20260508101958 | 18 | 40 | 1.6 | 6.4 | 0.00 | 0.84 | 0.00 | 80 | 1014.8 |
| 20260508101453 | 18 | 40 | 0.0 | 3.2 | 0.00 | 0.84 | 0.00 | 80 | 1014.9 |
| 20260508100455 | 18 | 40 | 0.0 | 3.2 | 0.00 | 0.84 | 0.00 | 78 | 1014.7 |
| 20260508095951 | 18 | 40 | 0.0 | 3.2 | 0.00 | 0.84 | 0.00 | 77 | 1014.6 |
| 20260508095449 | 18 | 40 | 0.0 | 3.2 | 0.00 | 0.84 | 0.00 | 77 | 1014.5 |
| 20260508094442 | 19 | 40 | 1.6 | 4.8 | 0.00 | 0.84 | 0.00 | 75 | 1014.4 |
| 20260508093940 | 19 | 40 | 1.6 | 6.4 | 0.00 | 0.84 | 0.00 | 75 | 1014.3 |
| 20260508093440 | 19 | 40 | 3.2 | 6.4 | 0.00 | 0.84 | 0.00 | 75 | 1014.3 |
| 20260508092935 | 19 | 40 | 1.6 | 4.8 | 0.00 | 0.84 | 0.00 | 75 | 1014.4 |
| 20260508092435 | 19 | 40 | 1.6 | 4.8 | 0.00 | 0.84 | 0.00 | 75 | 1014.4 |
| 20260508091936 | 19 | 40 | 3.2 | 6.4 | 0.00 | 0.84 | 0.00 | 75 | 1014.4 |
| 20260508091436 | 19 | 40 | 3.2 | 6.4 | 0.00 | 0.84 | 0.00 | 75 | 1014.2 |
| 20260508090934 | 19 | 40 | 3.2 | 4.8 | 0.00 | 0.84 | 0.00 | 75 | 1014.2 |
| 20260508090439 | 19 | 40 | 1.6 | 4.8 | 0.00 | 0.84 | 0.00 | 74 | 1014.1 |
| 20260508085936 | 19 | 40 | 1.6 | 6.4 | 0.00 | 0.84 | 0.00 | 75 | 1014.3 |
| 20260508085433 | 20 | 40 | 1.6 | 6.4 | 0.00 | 0.84 | 0.00 | 74 | 1014.3 |
| 20260508084435 | 20 | 40 | 3.2 | 8.0 | 0.00 | 0.84 | 0.00 | 74 | 1014.1 |
| 20260508083933 | 20 | 346 | 3.2 | 6.4 | 0.00 | 0.84 | 0.00 | 75 | 1014.0 |
| 20260508082930 | 20 | 346 | 3.2 | 8.0 | 0.00 | 0.84 | 0.00 | 75 | 1014.1 |
| 20260508082430 | 20 | 346 | 4.8 | 8.0 | 0.00 | 0.84 | 0.00 | 76 | 1014.1 |
| 20260508081930 | 20 | 336 | 4.8 | 12.9 | 0.00 | 0.84 | 0.00 | 76 | 1014.2 |
| 20260508081427 | 20 | 351 | 4.8 | 12.9 | 0.00 | 0.84 | 0.00 | 77 | 1014.1 |
| 20260508080927 | 20 | 30 | 4.8 | 9.7 | 0.00 | 0.84 | 0.00 | 78 | 1013.7 |
| 20260508080429 | 20 | 13 | 4.8 | 9.7 | 0.00 | 0.84 | 0.00 | 78 | 1014.0 |
| 20260508075927 | 20 | 1 | 4.8 | 11.3 | 0.00 | 0.84 | 0.00 | 79 | 1013.9 |
| 20260508074926 | 20 | 25 | 3.2 | 6.4 | 0.00 | 0.84 | 0.00 | 81 | 1014.1 |
| 20260508074430 | 20 | 25 | 4.8 | 12.9 | 0.00 | 0.84 | 0.00 | 81 | 1013.9 |
| 20260508073928 | 20 | 18 | 4.8 | 12.9 | 0.00 | 0.84 | 0.00 | 81 | 1014.1 |
| 20260508073424 | 20 | 20 | 4.8 | 12.9 | 0.00 | 0.84 | 0.00 | 81 | 1014.2 |
| 20260508072421 | 20 | 0 | 3.2 | 8.0 | 0.00 | 0.84 | 0.00 | 81 | 1014.0 |
| 20260508071925 | 20 | 8 | 4.8 | 8.0 | 0.00 | 0.84 | 0.00 | 81 | 1013.9 |
| 20260508070422 | 21 | 341 | 4.8 | 12.9 | 0.00 | 0.84 | 0.00 | 80 | 1014.2 |
| 20260508065921 | 21 | 318 | 6.4 | 16.1 | 0.00 | 0.84 | 0.00 | 80 | 1014.2 |
| 20260508065419 | 21 | 356 | 8.0 | 17.7 | 0.00 | 0.84 | 0.00 | 80 | 1014.0 |
| 20260508064420 | 21 | 336 | 8.0 | 19.3 | 0.00 | 0.84 | 0.00 | 80 | 1014.1 |
| 20260508063919 | 21 | 326 | 9.7 | 19.3 | 0.00 | 0.84 | 0.00 | 81 | 1014.1 |
| 20260508063419 | 21 | 4 | 11.3 | 20.9 | 0.00 | 0.84 | 0.00 | 82 | 1014.1 |
| 20260508062417 | 22 | 4 | 14.5 | 22.5 | 0.00 | 0.84 | 0.00 | 84 | 1014.1 |
| 20260508061917 | 22 | 11 | 12.9 | 22.5 | 0.00 | 0.84 | 0.00 | 87 | 1014.1 |
| 20260508061419 | 22 | 356 | 9.7 | 22.5 | 0.00 | 0.84 | 0.00 | 89 | 1014.1 |
| 20260508060917 | 22 | 0 | 8.0 | 20.9 | 0.00 | 0.84 | 0.00 | 90 | 1014.1 |
| 20260508060418 | 22 | 9 | 8.0 | 14.5 | 0.00 | 0.84 | 0.00 | 90 | 1014.1 |
| 20260508055918 | 22 | 330 | 9.7 | 19.3 | 0.00 | 0.84 | 0.00 | 91 | 1014.1 |
| 20260508055419 | 22 | 320 | 8.0 | 19.3 | 0.00 | 0.84 | 0.00 | 91 | 1014.2 |
| 20260508054921 | 22 | 306 | 4.8 | 12.9 | 0.00 | 0.84 | 0.00 | 91 | 1014.0 |
| 20260508053919 | 22 | 296 | 4.8 | 14.5 | 0.00 | 0.84 | 0.00 | 92 | 1014.1 |
| 20260508053419 | 22 | 265 | 4.8 | 12.9 | 0.00 | 0.84 | 0.00 | 92 | 1014.2 |
| 20260508052931 | 22 | 256 | 3.2 | 6.4 | 0.00 | 0.84 | 0.00 | 92 | 1014.1 |
| 20260508052418 | 22 | 256 | 3.2 | 6.4 | 0.00 | 0.84 | 0.00 | 92 | 1013.9 |
| 20260508051917 | 22 | 256 | 3.2 | 6.4 | 0.00 | 0.84 | 0.00 | 92 | 1013.8 |
| 20260508051418 | 22 | 248 | 3.2 | 6.4 | 0.00 | 0.84 | 0.00 | 92 | 1013.8 |
| 20260508050918 | 22 | 247 | 1.6 | 4.8 | 0.00 | 0.84 | 0.00 | 92 | 1013.7 |
| 20260508050418 | 22 | 247 | 1.6 | 4.8 | 0.00 | 0.84 | 0.00 | 91 | 1013.7 |
| 20260508045416 | 22 | 247 | 1.6 | 6.4 | 0.00 | 0.84 | 0.00 | 91 | 1013.5 |
| 20260508044917 | 22 | 247 | 3.2 | 6.4 | 0.00 | 0.84 | 0.00 | 91 | 1013.6 |
| 20260508043416 | 22 | 241 | 1.6 | 4.8 | 0.00 | 0.84 | 0.00 | 90 | 1013.6 |
| 20260508042914 | 22 | 240 | 1.6 | 4.8 | 0.00 | 0.84 | 0.00 | 90 | 1013.4 |
| 20260508041910 | 23 | 240 | 3.2 | 8.0 | 0.00 | 0.84 | 0.00 | 90 | 1013.6 |
| 20260508041410 | 23 | 241 | 3.2 | 4.8 | 0.00 | 0.84 | 0.00 | 90 | 1013.6 |
| 20260508040908 | 23 | 241 | 3.2 | 4.8 | 0.00 | 0.84 | 0.00 | 90 | 1013.7 |
| 20260508040410 | 23 | 241 | 3.2 | 4.8 | 0.00 | 0.84 | 0.00 | 89 | 1013.6 |
| 20260508035911 | 23 | 241 | 3.2 | 4.8 | 0.00 | 0.84 | 0.84 | 89 | 1013.5 |
| 20260508034909 | 23 | 241 | 1.6 | 6.4 | 0.00 | 0.84 | 0.84 | 89 | 1013.3 |
| 20260508034412 | 23 | 241 | 3.2 | 6.4 | 0.00 | 0.84 | 0.84 | 89 | 1013.3 |
| 20260508032910 | 23 | 241 | 3.2 | 8.0 | 0.00 | 0.84 | 0.84 | 89 | 1013.7 |
| 20260508032414 | 23 | 241 | 3.2 | 8.0 | 0.00 | 0.84 | 0.84 | 89 | 1013.7 |
| 20260508031910 | 23 | 253 | 3.2 | 4.8 | 0.00 | 0.84 | 0.84 | 89 | 1013.7 |
| 20260508031407 | 23 | 254 | 1.6 | 4.8 | 0.00 | 0.84 | 0.84 | 88 | 1013.6 |
| 20260508030905 | 23 | 254 | 3.2 | 11.3 | 0.00 | 0.84 | 0.84 | 88 | 1013.6 |
| 20260508030403 | 23 | 254 | 3.2 | 11.3 | 0.00 | 0.84 | 0.84 | 88 | 1013.6 |
| 20260508024904 | 23 | 220 | 3.2 | 6.4 | 0.00 | 0.84 | 0.84 | 88 | 1013.6 |
| 20260508024358 | 23 | 219 | 3.2 | 8.0 | 0.00 | 0.84 | 0.84 | 88 | 1013.5 |
| 20260508023855 | 23 | 217 | 3.2 | 8.0 | 0.00 | 0.84 | 0.84 | 88 | 1013.4 |
| 20260508023355 | 23 | 218 | 3.2 | 6.4 | 0.00 | 0.84 | 0.84 | 88 | 1013.3 |
| 20260508022857 | 23 | 218 | 3.2 | 6.4 | 0.00 | 0.84 | 0.84 | 88 | 1013.2 |
| 20260508022356 | 23 | 219 | 3.2 | 6.4 | 0.00 | 0.84 | 0.84 | 87 | 1013.1 |
| 20260508021857 | 23 | 219 | 3.2 | 6.4 | 0.00 | 0.84 | 0.84 | 87 | 1013.0 |
| 20260508015857 | 23 | 227 | 3.2 | 11.3 | 0.00 | 0.84 | 0.84 | 87 | 1012.7 |
| 20260508015355 | 23 | 225 | 3.2 | 8.0 | 0.00 | 0.84 | 0.84 | 86 | 1012.7 |
| 20260508014856 | 23 | 225 | 3.2 | 8.0 | 0.00 | 0.84 | 0.84 | 86 | 1012.7 |
| 20260508013855 | 23 | 230 | 3.2 | 8.0 | 0.00 | 0.84 | 0.84 | 86 | 1012.6 |
| 20260508012349 | 23 | 242 | 1.6 | 3.2 | 0.00 | 0.84 | 0.84 | 86 | 1012.5 |
| 20260508011850 | 24 | 242 | 1.6 | 3.2 | 0.00 | 0.84 | 0.84 | 86 | 1012.5 |
| 20260508011349 | 24 | 242 | 1.6 | 3.2 | 0.00 | 0.84 | 0.84 | 85 | 1012.4 |
| 20260508010850 | 24 | 242 | 1.6 | 3.2 | 0.00 | 0.84 | 0.84 | 85 | 1012.2 |
| 20260508010350 | 24 | 242 | 1.6 | 4.8 | 0.00 | 0.84 | 0.84 | 84 | 1012.3 |
| 20260508005845 | 24 | 242 | 1.6 | 4.8 | 0.00 | 0.84 | 0.84 | 84 | 1012.2 |
| 20260508005346 | 24 | 242 | 1.6 | 4.8 | 0.00 | 0.84 | 0.84 | 84 | 1012.1 |
| 20260508004845 | 24 | 242 | 3.2 | 4.8 | 0.00 | 0.84 | 0.84 | 83 | 1012.2 |
| 20260508004346 | 25 | 242 | 1.6 | 4.8 | 0.00 | 0.84 | 0.84 | 83 | 1012.1 |
| 20260508003346 | 25 | 242 | 1.6 | 4.8 | 0.00 | 0.84 | 0.84 | 82 | 1012.0 |
| 20260508002845 | 25 | 242 | 3.2 | 6.4 | 0.00 | 0.84 | 0.84 | 82 | 1012.0 |
| 20260508002347 | 25 | 252 | 3.2 | 9.7 | 0.00 | 0.84 | 0.84 | 81 | 1012.0 |
| 20260508001845 | 25 | 253 | 4.8 | 12.9 | 0.00 | 0.84 | 0.84 | 81 | 1012.0 |
| 20260508001344 | 25 | 232 | 6.4 | 12.9 | 0.00 | 0.84 | 0.84 | 81 | 1012.0 |
| 20260508000845 | 25 | 248 | 6.4 | 12.9 | 0.00 | 0.84 | 0.84 | 80 | 1012.0 |
| 20260508000345 | 25 | 252 | 6.4 | 12.9 | 0.00 | 0.84 | 0.84 | 80 | 1012.0 |
| 20260507235847 | 25 | 235 | 6.4 | 16.1 | 0.00 | 0.84 | 0.84 | 79 | 1012.0 |
| 20260507235348 | 25 | 232 | 8.0 | 17.7 | 0.00 | 0.84 | 0.84 | 79 | 1012.0 |
| 20260507234848 | 26 | 230 | 9.7 | 25.7 | 0.00 | 0.84 | 0.84 | 78 | 1012.1 |
| 20260507232843 | 26 | 256 | 11.3 | 29.0 | 0.00 | 0.84 | 0.84 | 77 | 1011.9 |
| 20260507232343 | 26 | 239 | 11.3 | 29.0 | 0.00 | 0.84 | 0.84 | 77 | 1012.1 |
| 20260507231840 | 26 | 227 | 11.3 | 27.4 | 0.00 | 0.84 | 0.84 | 77 | 1012.0 |
| 20260507230846 | 26 | 223 | 11.3 | 22.5 | 0.00 | 0.84 | 0.84 | 77 | 1012.0 |
| 20260507230339 | 26 | 255 | 11.3 | 22.5 | 0.00 | 0.84 | 0.84 | 77 | 1012.0 |
| 20260507225839 | 26 | 244 | 12.9 | 29.0 | 0.00 | 0.84 | 0.84 | 76 | 1011.8 |
| 20260507225346 | 26 | 233 | 12.9 | 29.0 | 0.00 | 0.84 | 0.84 | 76 | 1011.7 |
| 20260507224845 | 26 | 259 | 11.3 | 24.1 | 0.00 | 0.84 | 0.84 | 76 | 1011.7 |
| 20260507224341 | 26 | 239 | 11.3 | 24.1 | 0.00 | 0.84 | 0.84 | 76 | 1011.8 |
| 20260507223837 | 26 | 206 | 11.3 | 24.1 | 0.00 | 0.84 | 0.84 | 76 | 1011.7 |
| 20260507223335 | 26 | 264 | 9.7 | 24.1 | 0.00 | 0.84 | 0.84 | 76 | 1011.7 |
| 20260507222837 | 26 | 222 | 9.7 | 24.1 | 0.00 | 0.84 | 0.84 | 76 | 1011.6 |
| 20260507222336 | 26 | 229 | 9.7 | 29.0 | 0.00 | 0.84 | 0.84 | 76 | 1011.6 |
| 20260507221833 | 26 | 214 | 11.3 | 29.0 | 0.00 | 0.84 | 0.84 | 76 | 1011.8 |
| 20260507220829 | 26 | 270 | 11.3 | 24.1 | 0.00 | 0.84 | 0.84 | 75 | 1011.8 |
| 20260507220333 | 26 | 242 | 12.9 | 29.0 | 0.00 | 0.84 | 0.84 | 76 | 1011.8 |
| 20260507215833 | 26 | 200 | 14.5 | 32.2 | 0.00 | 0.84 | 0.84 | 75 | 1011.7 |
| 20260507215333 | 26 | 227 | 12.9 | 32.2 | 0.00 | 0.84 | 0.84 | 75 | 1011.8 |
| 20260507214835 | 26 | 223 | 9.7 | 27.4 | 0.00 | 0.84 | 0.84 | 75 | 1011.8 |
| 20260507214331 | 26 | 281 | 12.9 | 27.4 | 0.00 | 0.84 | 0.84 | 75 | 1011.7 |
| 20260507213833 | 26 | 238 | 12.9 | 27.4 | 0.00 | 0.84 | 0.84 | 74 | 1011.7 |
| 20260507213329 | 26 | 223 | 11.3 | 27.4 | 0.00 | 0.84 | 0.84 | 74 | 1011.6 |
| 20260507212832 | 26 | 249 | 12.9 | 29.0 | 0.00 | 0.84 | 0.84 | 74 | 1011.5 |
| 20260507212333 | 26 | 228 | 12.9 | 29.0 | 0.00 | 0.84 | 0.84 | 74 | 1011.6 |
| 20260507211902 | 26 | 208 | 12.9 | 22.5 | 0.00 | 0.84 | 0.84 | 74 | 1011.6 |
| 20260507211340 | 26 | 279 | 14.5 | 32.2 | 0.00 | 0.84 | 0.84 | 74 | 1011.6 |
| 20260507210829 | 26 | 237 | 14.5 | 32.2 | 0.00 | 0.84 | 0.84 | 73 | 1011.5 |
| 20260507210349 | 26 | 204 | 12.9 | 30.6 | 0.00 | 0.84 | 0.84 | 73 | 1011.4 |
| 20260507205838 | 26 | 200 | 14.5 | 32.2 | 0.00 | 0.84 | 0.84 | 74 | 1011.5 |
| 20260507205342 | 26 | 239 | 16.1 | 32.2 | 0.00 | 0.84 | 0.84 | 73 | 1011.5 |
| 20260507204329 | 26 | 232 | 17.7 | 37.0 | 0.00 | 0.84 | 0.84 | 72 | 1011.6 |
| 20260507202837 | 27 | 247 | 14.5 | 25.7 | 0.00 | 0.84 | 0.84 | 72 | 1011.6 |
| 20260507202324 | 26 | 279 | 12.9 | 30.6 | 0.00 | 0.84 | 0.84 | 74 | 1011.6 |
| 20260507201819 | 26 | 248 | 12.9 | 30.6 | 0.00 | 0.84 | 0.84 | 74 | 1011.7 |
| 20260507201332 | 27 | 249 | 12.9 | 29.0 | 0.00 | 0.84 | 0.84 | 74 | 1011.6 |
| 20260507200304 | 26 | 221 | 12.9 | 30.6 | 0.00 | 0.84 | 0.84 | 77 | 1011.8 |
| 20260507195817 | 26 | 209 | 12.9 | 30.6 | 0.00 | 0.84 | 0.84 | 78 | 1012.0 |
| 20260507195305 | 26 | 250 | 14.5 | 35.4 | 0.00 | 0.84 | 0.84 | 78 | 1012.1 |
| 20260507194804 | 26 | 194 | 16.1 | 35.4 | 0.00 | 0.84 | 0.84 | 77 | 1012.1 |
| 20260507194308 | 26 | 200 | 16.1 | 33.8 | 0.00 | 0.84 | 0.84 | 77 | 1012.0 |
| 20260507193808 | 26 | 272 | 16.1 | 33.8 | 0.00 | 0.84 | 0.84 | 78 | 1011.9 |
| 20260507193311 | 25 | 221 | 14.5 | 33.8 | 0.00 | 0.84 | 0.84 | 77 | 1011.8 |
| 20260507192812 | 25 | 250 | 12.9 | 32.2 | 0.00 | 0.84 | 0.84 | 80 | 1011.8 |
| 20260507192307 | 25 | 233 | 14.5 | 32.2 | 0.00 | 0.84 | 0.84 | 81 | 1011.8 |
| 20260507191807 | 25 | 252 | 14.5 | 27.4 | 0.00 | 0.84 | 0.84 | 80 | 1011.9 |
| 20260507191305 | 25 | 256 | 12.9 | 27.4 | 0.00 | 0.84 | 0.84 | 81 | 1012.1 |
| 20260507190802 | 25 | 264 | 12.9 | 27.4 | 0.00 | 0.84 | 0.84 | 81 | 1012.2 |
| 20260507190303 | 25 | 231 | 12.9 | 25.7 | 0.00 | 0.84 | 0.84 | 81 | 1012.2 |
| 20260507185800 | 24 | 250 | 11.3 | 20.9 | 0.00 | 0.84 | 0.84 | 81 | 1012.2 |
| 20260507185300 | 24 | 196 | 11.3 | 20.9 | 0.00 | 0.84 | 0.84 | 82 | 1012.3 |
| 20260507184758 | 24 | 236 | 12.9 | 25.7 | 0.00 | 0.84 | 0.84 | 82 | 1012.2 |
| 20260507184258 | 24 | 212 | 14.5 | 30.6 | 0.00 | 0.84 | 0.84 | 82 | 1012.4 |
| 20260507183800 | 24 | 225 | 16.1 | 33.8 | 0.00 | 0.84 | 0.84 | 82 | 1012.4 |
| 20260507183259 | 24 | 234 | 14.5 | 33.8 | 0.00 | 0.84 | 0.84 | 83 | 1012.5 |
| 20260507182258 | 24 | 206 | 11.3 | 24.1 | 0.00 | 0.84 | 0.84 | 82 | 1012.4 |
| 20260507181758 | 24 | 214 | 12.9 | 29.0 | 0.00 | 0.84 | 0.84 | 83 | 1012.6 |
| 20260507181258 | 24 | 213 | 12.9 | 29.0 | 0.00 | 0.84 | 0.84 | 82 | 1012.6 |
| 20260507180258 | 24 | 242 | 11.3 | 24.1 | 0.00 | 0.84 | 0.84 | 83 | 1012.5 |
| 20260507175801 | 24 | 224 | 9.7 | 29.0 | 0.00 | 0.84 | 0.84 | 83 | 1012.6 |
| 20260507175259 | 24 | 223 | 11.3 | 29.0 | 0.00 | 0.84 | 0.84 | 83 | 1012.5 |
| 20260507174754 | 24 | 196 | 12.9 | 27.4 | 0.00 | 0.84 | 0.84 | 84 | 1012.6 |